FW6456 Weather Reports


Display with metric or nautical units.
time (UTC)temp
F
wind
direction
speed
MPH
gust
MPH
rain 1hr
in
rain 24hr
in
rain mn
in
humidity
%
barometer
mb
20260510195120 73 4 3.0 3.0 0.00 0.00 0.00 67 3409.8
20260510194620 73 348 2.0 3.0 0.00 0.00 0.00 67 3409.6
20260510194116 73 15 1.0 2.0 0.00 0.00 0.00 68 3409.6
20260510193616 73 50 1.0 2.0 0.00 0.00 0.00 70 3409.6
20260510193112 73 53 1.0 2.0 0.00 0.00 0.00 70 3409.7
20260510192607 72 335 3.0 5.0 0.00 0.00 0.00 69 3409.5
20260510192103 72 47 1.0 2.0 0.00 0.00 0.00 70 3409.5
20260510191600 73 29 3.0 3.0 0.00 0.00 0.00 69 3409.7
20260510191056 73 23 1.0 2.0 0.00 0.00 0.00 69 3409.3
20260510190554 73 304 1.0 2.0 0.00 0.00 0.00 70 3409.2
20260510190052 73 278 1.0 2.0 0.00 0.00 0.00 69 3409.2
20260510185548 73 28 1.0 2.0 0.00 0.00 0.00 69 3409.3
20260510185045 73 35 1.0 3.0 0.00 0.00 0.00 69 3409.1
20260510184543 74 170 2.0 3.0 0.00 0.00 0.00 67 3409.1
20260510184038 75 57 1.0 2.0 0.00 0.00 0.00 67 3409.0
20260510183533 75 57 0.0 2.0 0.00 0.00 0.00 66 3409.0
20260510183028 75 110 2.0 2.0 0.00 0.00 0.00 68 3409.0
20260510182526 76 309 6.0 11.0 0.00 0.00 0.00 65 3409.0
20260510182021 76 26 1.0 2.0 0.00 0.00 0.00 65 3408.9
20260510181519 76 293 4.0 7.0 0.00 0.00 0.00 64 3409.0
20260510181014 75 92 1.0 2.0 0.00 0.00 0.00 66 3409.3
20260510180512 76 299 6.0 11.0 0.00 0.00 0.00 63 3409.2
20260510180010 75 32 0.0 2.0 0.00 0.00 0.00 65 3409.4
20260510175504 76 318 6.0 7.0 0.00 0.00 0.00 63 3409.2
20260510175001 75 336 2.0 3.0 0.00 0.00 0.00 66 3409.2
20260510174459 76 334 2.0 5.0 0.00 0.00 0.00 64 3409.3
20260510173955 76 125 1.0 2.0 0.00 0.00 0.00 65 3409.2
20260510173451 75 42 0.0 2.0 0.00 0.00 0.00 65 3409.4
20260510172948 76 9 4.0 5.0 0.00 0.00 0.00 65 3409.3
20260510172443 76 312 2.0 3.0 0.00 0.00 0.00 63 3409.5
20260510171940 76 139 1.0 2.0 0.00 0.00 0.00 66 3409.5
20260510171437 75 27 0.0 2.0 0.00 0.00 0.00 66 3409.4
20260510170934 75 290 3.0 3.0 0.00 0.00 0.00 64 3409.2
20260510170430 76 344 4.0 5.0 0.00 0.00 0.00 64 3409.3
20260510165926 75 150 0.0 0.0 0.00 0.00 0.00 70 3409.3
20260510165422 74 151 0.0 0.0 0.00 0.00 0.00 67 3409.3
20260510164919 75 281 5.0 7.0 0.00 0.00 0.00 64 3409.7
20260510164416 74 20 1.0 2.0 0.00 0.00 0.00 66 3409.6
20260510163911 74 2 3.0 5.0 0.00 0.00 0.00 64 3409.5
20260510163408 74 317 3.0 5.0 0.00 0.00 0.00 65 3409.5
20260510162907 74 309 3.0 3.0 0.00 0.00 0.00 65 3409.8
20260510162405 74 343 3.0 3.0 0.00 0.00 0.00 66 3409.4
20260510161901 74 13 0.0 2.0 0.00 0.00 0.00 64 3409.3
20260510161356 74 16 2.0 3.0 0.00 0.00 0.00 65 3409.4
20260510160853 73 319 4.0 5.0 0.00 0.00 0.00 66 3409.2
20260510160351 73 277 5.0 7.0 0.00 0.00 0.00 66 3409.1
20260510155844 73 333 3.0 3.0 0.00 0.00 0.00 67 3409.5
20260510155341 73 329 2.0 3.0 0.00 0.00 0.00 67 3409.3
20260510154837 72 27 1.0 2.0 0.00 0.00 0.00 68 3409.1
20260510154333 72 299 3.0 5.0 0.00 0.00 0.00 69 3409.0
20260510153827 71 37 0.0 2.0 0.00 0.00 0.00 71 3408.7
20260510153323 71 300 3.0 5.0 0.00 0.00 0.00 71 3409.0
20260510152815 71 103 0.0 0.0 0.00 0.00 0.00 73 3408.8
20260510152312 70 19 2.0 2.0 0.00 0.00 0.00 75 3408.9
20260510151808 70 127 0.0 0.0 0.00 0.00 0.00 76 3408.5
20260510151306 70 352 0.0 2.0 0.00 0.00 0.00 76 3408.9
20260510150802 69 14 0.0 0.0 0.00 0.00 0.00 76 3408.7
20260510150258 69 40 1.0 3.0 0.00 0.00 0.00 75 3408.9
20260510145754 69 45 0.0 2.0 0.00 0.00 0.00 77 3408.7
20260510145251 68 327 2.0 3.0 0.00 0.00 0.00 75 3408.7
20260510144747 68 173 0.0 0.0 0.00 0.00 0.00 76 3408.5
20260510144244 67 251 0.0 0.0 0.00 0.00 0.00 77 3408.6
20260510143737 67 253 3.0 3.0 0.00 0.00 0.00 77 3408.5
20260510143234 66 83 0.0 0.0 0.00 0.00 0.00 78 3408.6
20260510142731 66 355 1.0 2.0 0.00 0.00 0.00 77 3408.5
20260510142228 65 1 0.0 0.0 0.00 0.00 0.00 78 3408.5
20260510141725 65 340 2.0 3.0 0.00 0.00 0.00 77 3408.4
20260510141223 65 358 0.0 2.0 0.00 0.00 0.00 78 3408.4
20260510140719 65 327 0.0 2.0 0.00 0.00 0.00 78 3408.5
20260510140220 65 72 0.0 0.0 0.00 0.00 0.00 80 3408.5
20260510135714 65 45 0.0 0.0 0.00 0.00 0.00 79 3408.4
20260510135210 65 29 0.0 0.0 0.00 0.00 0.00 79 3408.5
20260510134708 65 30 0.0 0.0 0.00 0.00 0.00 79 3408.4
20260510134205 65 323 4.0 5.0 0.00 0.00 0.00 79 3408.5
20260510133701 65 357 0.0 2.0 0.00 0.00 0.00 79 3408.2
20260510133156 65 74 0.0 2.0 0.00 0.00 0.00 79 3408.2
20260510132653 65 320 5.0 5.0 0.00 0.00 0.00 77 3408.4
20260510132150 65 309 5.0 7.0 0.00 0.00 0.00 77 3408.3
20260510131648 65 58 0.0 0.0 0.00 0.00 0.00 79 3408.3
20260510131145 64 348 2.0 3.0 0.00 0.00 0.00 81 3408.2
20260510130641 64 28 2.0 3.0 0.00 0.00 0.00 82 3408.0
20260510130139 63 328 2.0 3.0 0.00 0.00 0.00 83 3407.9
20260510125635 62 127 0.0 0.0 0.00 0.00 0.00 84 3407.7
20260510125131 61 119 0.0 2.0 0.00 0.00 0.00 85 3407.7
20260510124628 61 103 0.0 0.0 0.00 0.00 0.00 87 3407.6
20260510124125 60 102 0.0 0.0 0.00 0.00 0.00 87 3407.5
20260510123620 60 102 0.0 0.0 0.00 0.00 0.00 88 3407.6
20260510123117 60 102 0.0 0.0 0.00 0.00 0.00 89 3407.2
20260510122613 60 102 0.0 0.0 0.00 0.00 0.00 89 3407.5
20260510122109 59 102 0.0 0.0 0.00 0.00 0.00 87 3407.3
20260510121606 59 102 0.0 0.0 0.00 0.00 0.00 87 3407.1
20260510121103 59 102 0.0 0.0 0.00 0.00 0.00 87 3407.1
20260510120601 59 102 0.0 0.0 0.00 0.00 0.00 87 3406.9
20260510120056 59 102 0.0 0.0 0.00 0.00 0.00 87 3406.8
20260510115553 59 102 0.0 0.0 0.00 0.00 0.00 88 3406.9
20260510115050 59 102 0.0 0.0 0.00 0.00 0.00 88 3406.9
20260510114546 58 102 0.0 0.0 0.00 0.00 0.00 88 3406.6
20260510114042 58 100 0.0 2.0 0.00 0.00 0.00 89 3406.6
20260510113537 58 101 0.0 0.0 0.00 0.00 0.00 90 3406.4
20260510113035 58 101 0.0 0.0 0.00 0.00 0.00 90 3406.3
20260510112531 58 101 0.0 0.0 0.00 0.00 0.00 89 3406.4
20260510112028 58 101 0.0 0.0 0.00 0.00 0.00 89 3406.4
20260510111525 57 101 0.0 0.0 0.00 0.00 0.00 88 3406.3
20260510111021 57 101 0.0 0.0 0.00 0.00 0.00 89 3406.3
20260510110517 57 101 0.0 0.0 0.00 0.00 0.00 89 3406.4
20260510110014 57 102 0.0 0.0 0.00 0.00 0.00 89 3406.2
20260510105508 57 79 0.0 0.0 0.00 0.00 0.00 90 3406.5
20260510105004 56 73 0.0 2.0 0.00 0.00 0.00 91 3406.0
20260510104501 56 74 0.0 0.0 0.00 0.00 0.00 91 3406.0
20260510103957 56 74 0.0 0.0 0.00 0.00 0.00 90 3406.4
20260510103454 56 74 0.0 0.0 0.00 0.00 0.00 90 3406.4
20260510102950 56 74 0.0 0.0 0.00 0.00 0.00 90 3406.4
20260510102446 57 74 0.0 0.0 0.00 0.00 0.00 89 3406.6
20260510101942 57 74 0.0 0.0 0.00 0.00 0.00 89 3406.3
20260510101440 57 74 0.0 0.0 0.00 0.00 0.00 88 3406.2
20260510100939 57 74 0.0 0.0 0.00 0.00 0.00 87 3406.0
20260510100434 58 74 0.0 0.0 0.00 0.00 0.00 86 3406.1
20260510095931 58 74 0.0 0.0 0.00 0.00 0.00 85 3406.0
20260510095427 59 74 0.0 0.0 0.00 0.00 0.00 85 3406.2
20260510094926 59 74 0.0 0.0 0.00 0.00 0.00 84 3406.1
20260510094421 59 74 0.0 0.0 0.00 0.00 0.00 83 3405.9
20260510093917 60 75 0.0 0.0 0.00 0.00 0.00 82 3406.0
20260510093413 60 75 0.0 0.0 0.00 0.00 0.00 82 3406.0
20260510092909 60 74 0.0 0.0 0.00 0.00 0.00 80 3406.0
20260510092407 61 74 0.0 0.0 0.00 0.00 0.00 80 3406.1
20260510091901 61 11 1.0 3.0 0.00 0.00 0.00 80 3406.0
20260510091358 60 72 1.0 2.0 0.00 0.00 0.00 81 3405.8
20260510090855 58 144 0.0 2.0 0.00 0.00 0.00 86 3405.8
20260510090351 55 319 7.0 8.0 0.00 0.00 0.00 92 3406.2
20260510085847 55 79 0.0 0.0 0.00 0.00 0.00 92 3405.4
20260510085342 55 79 0.0 0.0 0.00 0.00 0.00 92 3405.3
20260510084838 55 79 0.0 0.0 0.00 0.00 0.00 92 3405.2
20260510084335 55 79 0.0 0.0 0.00 0.00 0.00 92 3405.2
20260510083832 55 79 0.0 0.0 0.00 0.00 0.00 92 3405.1
20260510083329 55 79 0.0 0.0 0.00 0.00 0.00 93 3405.2
20260510082824 55 79 0.0 0.0 0.00 0.00 0.00 93 3404.9
20260510082322 55 78 0.0 0.0 0.00 0.00 0.00 93 3404.9
20260510081820 55 79 0.0 0.0 0.00 0.00 0.00 92 3404.8
20260510081317 55 79 0.0 0.0 0.00 0.00 0.00 92 3404.9
20260510080812 56 79 0.0 0.0 0.00 0.00 0.00 92 3404.8
20260510080308 56 79 0.0 0.0 0.00 0.00 0.00 92 3404.8
20260510075805 56 79 0.0 0.0 0.00 0.00 0.00 92 3404.8
20260510075306 56 79 0.0 0.0 0.00 0.00 0.00 92 3405.0
20260510074759 56 79 0.0 0.0 0.00 0.00 0.00 92 3404.9
20260510074256 56 78 0.0 0.0 0.00 0.00 0.00 92 3404.8
20260510073752 56 78 0.0 0.0 0.00 0.00 0.00 92 3404.9
20260510073248 56 78 0.0 0.0 0.00 0.00 0.00 92 3404.8
20260510072744 56 78 0.0 0.0 0.00 0.00 0.00 92 3404.8
20260510072240 56 79 0.0 0.0 0.00 0.00 0.00 92 3404.4
20260510071737 56 80 0.0 0.0 0.00 0.00 0.00 92 3404.6
20260510071234 56 98 0.0 0.0 0.00 0.00 0.00 92 3404.7
20260510070732 56 95 0.0 0.0 0.00 0.00 0.00 93 3404.6
20260510070229 56 133 0.0 0.0 0.00 0.00 0.00 93 3404.5
20260510065724 55 133 0.0 0.0 0.00 0.00 0.00 93 3404.3
20260510065221 55 134 0.0 0.0 0.00 0.00 0.00 93 3404.5
20260510064717 55 133 0.0 0.0 0.00 0.00 0.00 94 3404.7
20260510064215 56 134 0.0 0.0 0.00 0.00 0.00 93 3404.4
20260510063711 56 133 0.0 0.0 0.00 0.00 0.00 94 3404.7
20260510063207 56 133 0.0 0.0 0.00 0.00 0.00 94 3404.5
20260510062704 56 133 0.0 0.0 0.00 0.00 0.00 94 3404.7
20260510062200 56 133 0.0 0.0 0.00 0.00 0.00 94 3404.5
20260510061655 56 133 0.0 0.0 0.00 0.00 0.00 93 3404.7
20260510061153 56 133 0.0 0.0 0.00 0.00 0.00 93 3404.6
20260510060649 57 133 0.0 0.0 0.00 0.00 0.00 93 3404.5
20260510060146 57 133 0.0 0.0 0.00 0.00 0.00 93 3404.7
20260510055642 57 133 0.0 0.0 0.00 0.00 0.00 93 3404.6
20260510055140 57 134 0.0 0.0 0.00 0.00 0.00 93 3404.8
20260510054635 57 133 0.0 0.0 0.00 0.00 0.00 93 3404.7
20260510054131 57 133 0.0 0.0 0.00 0.00 0.00 93 3404.6
20260510053630 57 133 0.0 0.0 0.00 0.00 0.00 93 3404.8
20260510053127 57 133 0.0 0.0 0.00 0.00 0.00 93 3404.5
20260510052624 57 133 0.0 0.0 0.00 0.00 0.00 93 3404.9
20260510052120 57 133 0.0 0.0 0.00 0.00 0.00 92 3404.8
20260510051615 57 133 0.0 0.0 0.00 0.00 0.00 92 3404.5
20260510051113 57 133 0.0 0.0 0.00 0.00 0.00 92 3404.7
20260510050610 57 133 0.0 0.0 0.00 0.00 0.00 92 3404.5
20260510050106 57 133 0.0 0.0 0.00 0.00 0.00 92 3404.6
20260510045603 57 133 0.0 0.0 0.00 0.00 0.00 92 3404.8
20260510045059 57 133 0.0 0.0 0.00 0.00 0.00 91 3404.6
20260510044556 57 133 0.0 0.0 0.00 0.00 0.00 91 3404.6
20260510044054 58 133 0.0 0.0 0.00 0.00 0.00 91 3404.7
20260510043549 58 133 0.0 0.0 0.00 0.00 0.00 91 3404.7
20260510043045 58 133 0.0 0.0 0.00 0.00 0.00 90 3404.6
20260510042544 58 133 0.0 0.0 0.00 0.00 0.00 90 3404.7
20260510042040 59 133 0.0 0.0 0.00 0.00 0.00 89 3404.5
20260510041537 59 133 0.0 0.0 0.00 0.00 0.00 89 3404.6
20260510041034 59 133 0.0 0.0 0.00 0.00 0.00 89 3404.8
20260510040531 59 133 0.0 0.0 0.00 0.00 0.00 89 3404.7
20260510040027 59 133 0.0 0.0 0.00 0.00 0.00 88 3404.5
20260510035523 59 133 0.0 0.0 0.00 0.00 0.00 88 3404.5
20260510035022 60 133 0.0 0.0 0.00 0.00 0.00 88 3404.5
20260510034522 60 133 0.0 0.0 0.00 0.00 0.00 87 3404.4
20260510034017 60 133 0.0 0.0 0.00 0.00 0.00 87 3404.5
20260510033514 60 133 0.0 0.0 0.00 0.00 0.00 87 3404.7
20260510033012 60 133 0.0 0.0 0.00 0.00 0.00 86 3404.7
20260510032508 60 133 0.0 0.0 0.00 0.00 0.00 86 3404.8
20260510032008 60 133 0.0 0.0 0.00 0.00 0.00 85 3404.8
20260510031504 60 133 0.0 0.0 0.00 0.00 0.00 85 3404.8
20260510031000 61 133 0.0 0.0 0.00 0.00 0.00 84 3404.6
20260510030455 61 133 0.0 0.0 0.00 0.00 0.00 84 3404.7
20260510025953 61 133 0.0 0.0 0.00 0.00 0.00 84 3404.7
20260510025450 61 133 0.0 0.0 0.00 0.00 0.00 84 3404.8
20260510024948 62 133 0.0 0.0 0.00 0.00 0.00 83 3404.6
20260510024444 62 133 0.0 0.0 0.00 0.00 0.00 83 3404.7
20260510023940 62 133 0.0 0.0 0.00 0.00 0.00 82 3404.7
20260510023436 62 134 0.0 0.0 0.00 0.00 0.00 81 3404.5
20260510022934 62 133 0.0 0.0 0.00 0.00 0.00 80 3404.3
20260510022433 62 133 0.0 0.0 0.00 0.00 0.00 79 3404.6
20260510021932 63 133 0.0 0.0 0.00 0.00 0.00 79 3404.3
20260510021430 63 134 0.0 0.0 0.00 0.00 0.00 79 3404.3
20260510020926 63 133 0.0 0.0 0.00 0.00 0.00 78 3404.4
20260510020421 64 133 0.0 0.0 0.00 0.00 0.00 77 3404.2
20260510015917 64 134 0.0 0.0 0.00 0.00 0.00 76 3404.1
20260510015413 64 133 0.0 0.0 0.00 0.00 0.00 76 3403.9
20260510014908 64 133 0.0 0.0 0.00 0.00 0.00 76 3403.9
20260510014406 65 133 0.0 0.0 0.00 0.00 0.00 75 3403.9
20260510013902 65 134 0.0 0.0 0.00 0.00 0.00 74 3403.7
20260510013357 66 134 0.0 0.0 0.00 0.00 0.00 74 3403.8
20260510012852 66 134 0.0 0.0 0.00 0.00 0.00 72 3403.3
20260510012347 67 133 0.0 0.0 0.00 0.00 0.00 72 3403.4
20260510011842 67 134 0.0 0.0 0.00 0.00 0.00 71 3403.4
20260510011338 68 134 0.0 0.0 0.00 0.00 0.00 72 3403.3
20260510010834 69 134 0.0 0.0 0.00 0.00 0.00 70 3403.4
20260510010332 69 134 0.0 0.0 0.00 0.00 0.00 66 3403.2
20260510005828 70 134 0.0 0.0 0.00 0.00 0.00 64 3403.2
20260510005325 70 134 0.0 0.0 0.00 0.00 0.00 64 3403.1
20260510004823 71 134 0.0 0.0 0.00 0.00 0.00 62 3403.2
20260510004320 71 134 0.0 0.0 0.00 0.00 0.00 62 3403.1
20260510003818 72 134 0.0 2.0 0.00 0.00 0.00 60 3403.0
20260510003314 72 134 0.0 0.0 0.00 0.00 0.00 61 3402.8
20260510002813 73 133 0.0 0.0 0.00 0.00 0.00 60 3402.8
20260510002310 73 133 0.0 2.0 0.00 0.00 0.00 60 3402.7
20260510001807 73 133 0.0 0.0 0.00 0.00 0.00 59 3402.6
20260510001305 74 134 0.0 0.0 0.00 0.00 0.00 57 3402.3
20260510000800 74 133 0.0 0.0 0.00 0.00 0.00 57 3402.7
20260510000258 75 133 0.0 0.0 0.00 0.00 0.00 57 3402.6
20260509235756 75 134 0.0 0.0 0.00 0.00 0.00 55 3402.3
20260509235252 76 125 0.0 0.0 0.00 0.00 0.00 54 3402.3
20260509234747 76 125 0.0 0.0 0.00 0.00 0.00 53 3402.3
20260509234244 76 125 0.0 0.0 0.00 0.00 0.00 53 3402.3
20260509233743 77 120 0.0 0.0 0.00 0.00 0.00 53 3402.1
20260509233240 77 114 0.0 0.0 0.00 0.00 0.00 53 3402.2
20260509232736 77 112 0.0 0.0 0.00 0.00 0.00 52 3402.4
20260509232233 78 122 0.0 0.0 0.00 0.00 0.00 51 3402.3
20260509231729 78 123 1.0 2.0 0.00 0.00 0.00 50 3402.3
20260509231227 79 126 0.0 0.0 0.00 0.00 0.00 48 3402.6
20260509230724 80 126 0.0 0.0 0.00 0.00 0.00 49 3402.3
20260509230221 81 118 1.0 2.0 0.00 0.00 0.00 46 3402.2
20260509225716 81 193 1.0 2.0 0.00 0.00 0.00 47 3402.4
20260509225212 81 193 1.0 2.0 0.00 0.00 0.00 46 3402.2
20260509224708 80 160 0.0 0.0 0.00 0.00 0.00 48 3402.1
20260509224205 80 160 2.0 2.0 0.00 0.00 0.00 47 3402.6
20260509223702 81 151 3.0 3.0 0.00 0.00 0.00 45 3402.3
20260509223159 82 241 2.0 3.0 0.00 0.00 0.00 44 3402.1
20260509222656 82 144 0.0 0.0 0.00 0.00 0.00 46 3402.1
20260509222152 81 148 0.0 0.0 0.00 0.00 0.00 44 3402.0
20260509221648 82 141 3.0 3.0 0.00 0.00 0.00 44 3402.1
20260509221143 82 150 0.0 2.0 0.00 0.00 0.00 44 3402.0
20260509220640 81 211 2.0 3.0 0.00 0.00 0.00 47 3402.2
20260509220136 81 348 2.0 3.0 0.00 0.00 0.00 46 3402.2
20260509215632 82 44 2.0 3.0 0.00 0.00 0.00 44 3402.1
20260509215129 81 224 1.0 2.0 0.00 0.00 0.00 45 3402.2
20260509214626 80 319 3.0 3.0 0.00 0.00 0.00 46 3402.1
20260509214123 80 65 0.0 2.0 0.00 0.00 0.00 48 3402.1
20260509213619 80 141 0.0 0.0 0.00 0.00 0.00 46 3402.0
20260509213115 81 292 4.0 5.0 0.00 0.00 0.00 44 3401.9
20260509212613 81 287 0.0 2.0 0.00 0.00 0.00 44 3402.0
20260509212110 81 228 0.0 0.0 0.00 0.00 0.00 50 3401.9
20260509211606 80 88 1.0 2.0 0.00 0.00 0.00 47 3402.1
20260509211103 79 354 5.0 7.0 0.00 0.00 0.00 46 3401.8
20260509210559 79 9 2.0 2.0 0.00 0.00 0.00 48 3401.9
20260509210056 79 311 3.0 5.0 0.00 0.00 0.00 50 3402.1
20260509205550 78 321 5.0 7.0 0.00 0.00 0.00 49 3402.2
20260509205045 78 173 2.0 3.0 0.00 0.00 0.00 53 3402.1
20260509204542 77 15 1.0 2.0 0.00 0.00 0.00 52 3402.0
20260509204038 78 125 1.0 2.0 0.00 0.00 0.00 54 3402.2
20260509203534 77 272 2.0 3.0 0.00 0.00 0.00 53 3402.3
20260509203033 78 26 2.0 3.0 0.00 0.00 0.00 54 3402.6
20260509202527 77 164 2.0 3.0 0.00 0.00 0.00 57 3402.6
20260509202023 77 259 4.0 5.0 0.00 0.00 0.00 55 3402.7
20260509201518 77 261 5.0 7.0 0.00 0.00 0.00 55 3402.7
20260509201016 77 166 0.0 2.0 0.00 0.00 0.00 56 3402.7
20260509200510 77 248 3.0 5.0 0.00 0.00 0.00 56 3402.8
20260509200007 77 260 4.0 5.0 0.00 0.00 0.00 57 3403.0